Weather History for Panama City Tyndall AFB, FL

Change the Weather History Date:

Tuesday, November 20, 2012

  Actual Average Record
Temperature  
Mean Temperature 62 °F -  
Max Temperature 69 °F 69 °F 77 °F (1998)
Min Temperature 54 °F 51 °F 39 °F (2006)
Degree Days  
Heating Degree Days 4    
Growing Degree Days 12 (Base 50)    
Moisture  
Dew Point 57 °F    
Average Humidity 82    
Maximum Humidity 100    
Minimum Humidity 68    
Precipitation  
Precipitation 0.00 in - - ()
Sea Level Pressure  
Sea Level Pressure 30.13 in    
Wind  
Wind Speed 5 mph (NNW)    
Max Wind Speed 10 mph    
Max Gust Speed -    
Visibility 10 miles    
Events      
Averages and records for this station are not official NWS values.
T = Trace of Precipitation, MM = Missing Value Source: NWS Daily Summary

Daily Weather History Graph

Daily Weather History Graph

Search for Another Location

Airport:

Trip Planner

Search our weather history database for the weather conditions in past years. The results will help you decide how hot, cold, wet, or windy it might be!

Date:

Astronomy

Nov. 20, 2012 Rise Set
Actual Time 6:12 AM CST 4:43 PM CST
Civil Twilight 5:46 AM CST 5:09 PM CST
Nautical Twilight 5:17 AM CST 5:38 PM CST
Astronomical Twilight 4:48 AM CST 6:07 PM CST
Moon 12:00 PM CST (11/20) 11:57 PM CST (11/20)
Length of Visible Light 11h 22m
Length of Day
10h 31m
First Quarter, 51% of the Moon is Illuminated
Nov 20
First Quarter
Nov 28
Full
Dec 6
Last Quarter
Dec 13
New
Dec 19
First Quarter

Hourly Weather History & Observations

Time (CST) Temp. Dew Point Humidity Pressure Visibility Wind Dir Wind Speed Gust Speed Precip Events Conditions
12:18 AM 55.4 °F 53.6 °F 94% 30.15 in 10.0 mi NNE 6.9 mph - N/A   Mostly Cloudy
12:31 AM 55.4 °F 53.6 °F 94% 30.15 in 10.0 mi North 6.9 mph - N/A   Scattered Clouds
12:55 AM 55.6 °F 53.1 °F 91% 30.15 in 10.0 mi North 4.6 mph - N/A   Partly Cloudy
1:16 AM 55.4 °F 53.6 °F 94% 30.15 in 10.0 mi Calm Calm - N/A   Mostly Cloudy
1:55 AM 56.3 °F 53.6 °F 91% 30.14 in 10.0 mi NE 4.6 mph - N/A   Overcast
2:55 AM 57.0 °F 54.1 °F 90% 30.14 in 10.0 mi NE 3.5 mph - N/A   Overcast
3:55 AM 57.2 °F 54.9 °F 92% 30.14 in 10.0 mi Calm Calm - N/A   Overcast
4:55 AM 57.0 °F 54.5 °F 91% 30.13 in 10.0 mi ENE 3.5 mph - N/A   Overcast
5:04 AM 57.2 °F 53.6 °F 88% 30.13 in 10.0 mi ENE 3.5 mph - N/A   Scattered Clouds
5:55 AM 55.0 °F 53.6 °F 95% 30.16 in 10.0 mi NE 3.5 mph - N/A   Scattered Clouds
6:00 AM 55.4 °F 53.6 °F 94% 30.16 in 10.0 mi NNE 3.5 mph - N/A   Mostly Cloudy
6:32 AM 55.4 °F 55.4 °F 100% 30.15 in 10.0 mi ENE 4.6 mph - N/A   Scattered Clouds
6:55 AM 54.3 °F 54.1 °F 99% 30.17 in 10.0 mi Calm Calm - N/A   Partly Cloudy
7:55 AM 61.3 °F 56.8 °F 85% 30.18 in 10.0 mi Calm Calm - N/A   Clear
8:11 AM 62.6 °F 57.2 °F 82% 30.18 in 10.0 mi North 3.5 mph - N/A   Mostly Cloudy
8:55 AM 63.5 °F 57.2 °F 80% 30.19 in 10.0 mi Variable 3.5 mph - N/A   Mostly Cloudy
8:58 AM 64.4 °F 57.2 °F 77% 30.19 in 10.0 mi Variable 3.5 mph - N/A   Scattered Clouds
9:21 AM 66.2 °F 59.0 °F 78% 30.19 in 10.0 mi North 3.5 mph - N/A   Light Drizzle
9:29 AM 66.2 °F 59.0 °F 78% 30.18 in 10.0 mi North 3.5 mph - N/A   Mostly Cloudy
9:55 AM 66.2 °F 58.3 °F 76% 30.18 in 10.0 mi NNE 3.5 mph - N/A   Mostly Cloudy
10:43 AM 68.0 °F 59.0 °F 73% 30.16 in 10.0 mi Calm Calm - N/A   Light Drizzle
10:50 AM 68.0 °F 59.0 °F 73% 30.14 in 10.0 mi Variable 1.2 mph - N/A   Scattered Clouds
10:55 AM 68.2 °F 58.8 °F 72% 30.15 in 10.0 mi Calm Calm - 0.00 in   Light Drizzle
11:00 AM 68.0 °F 59.0 °F 73% 30.15 in 10.0 mi Variable 1.2 mph - N/A   Partly Cloudy
11:07 AM 68.0 °F 59.0 °F 73% 30.15 in 10.0 mi East 4.6 mph - N/A   Partly Cloudy
11:14 AM 69.8 °F 59.0 °F 68% 30.15 in 10.0 mi North 6.9 mph - N/A   Scattered Clouds
11:26 AM 68.0 °F 59.0 °F 73% 30.14 in 10.0 mi Calm Calm - N/A   Partly Cloudy
11:59 AM 69.8 °F 59.0 °F 68% 30.12 in 10.0 mi Variable 4.6 mph - N/A   Scattered Clouds
12:55 PM 69.1 °F 59.9 °F 72% 30.09 in 10.0 mi WSW 8.1 mph - N/A   Partly Cloudy
1:03 PM 69.8 °F 60.8 °F 73% 30.09 in 10.0 mi West 8.1 mph - N/A   Light Drizzle
1:09 PM 69.8 °F 60.8 °F 73% 30.09 in 10.0 mi West 8.1 mph - N/A   Scattered Clouds
1:12 PM 69.8 °F 60.8 °F 73% 30.09 in 10.0 mi West 5.8 mph - N/A   Partly Cloudy
1:37 PM 69.8 °F 60.8 °F 73% 30.08 in 10.0 mi WSW 8.1 mph - N/A   Mostly Cloudy
1:55 PM 68.7 °F 60.1 °F 74% 30.08 in 10.0 mi West 10.4 mph - N/A   Mostly Cloudy
2:03 PM 69.8 °F 59.0 °F 68% 30.08 in 10.0 mi West 9.2 mph - N/A   Mostly Cloudy
2:39 PM 66.2 °F 59.0 °F 78% 30.08 in 10.0 mi West 9.2 mph - N/A   Mostly Cloudy
2:55 PM 67.6 °F 60.1 °F 77% 30.08 in 10.0 mi WSW 9.2 mph - N/A   Mostly Cloudy
3:23 PM 66.2 °F 59.0 °F 78% 30.08 in 10.0 mi West 9.2 mph - N/A   Mostly Cloudy
3:32 PM 66.2 °F 59.0 °F 78% 30.08 in 10.0 mi West 9.2 mph - N/A   Mostly Cloudy
3:55 PM 66.0 °F 60.3 °F 82% 30.08 in 10.0 mi West 9.2 mph - 0.00 in   Clear
4:55 PM 64.2 °F 59.7 °F 85% 30.09 in 10.0 mi WNW 6.9 mph - N/A   Mostly Cloudy
5:55 PM 61.3 °F 58.6 °F 91% 30.09 in 10.0 mi NNW 5.8 mph - N/A   Mostly Cloudy
6:55 PM 61.3 °F 56.8 °F 85% 30.11 in 10.0 mi NNW 4.6 mph - N/A   Scattered Clouds
7:48 PM 60.8 °F 57.2 °F 88% 30.12 in 10.0 mi North 6.9 mph - N/A   Mostly Cloudy
7:55 PM 61.2 °F 56.5 °F 85% 30.12 in 10.0 mi North 6.9 mph - N/A   Mostly Cloudy
8:52 PM 60.8 °F 55.4 °F 82% 30.13 in 10.0 mi North 4.6 mph - N/A   Overcast
8:55 PM 59.7 °F 55.9 °F 87% 30.13 in 10.0 mi NNE 5.8 mph - N/A   Overcast
9:55 PM 58.5 °F 55.8 °F 91% 30.13 in 10.0 mi North 5.8 mph - N/A   Scattered Clouds
10:55 PM 57.9 °F 56.3 °F 94% 30.13 in 10.0 mi North 3.5 mph - N/A   Mostly Cloudy
11:55 PM 58.5 °F 56.5 °F 93% 30.12 in 10.0 mi North 5.8 mph - N/A   Mostly Cloudy